Miscellaneous Local Product
Issued by NWS North Platte, NE

Home | Current Version | Previous Version | Text Only | Print | Product List | Glossary On
Versions: 1 2 3 4 5 6 7 8 9 10 11 12 13 14 15 16 17 18 19 20 21 22 23 24 25 26 27 28 29 30 31 32 33 34 35 36 37 38 39 40 41 42 43 44 45 46 47 48 49 50
000
AXUS43 KLBF 021410
MISLBF


WESTERN AND NORTH CENTRAL NEBRASKA HOURLY WEATHER ROUNDUP
NATIONAL WEATHER SERVICE NORTH PLATTE NE
900 AM CDT SUN AUG 02 2015

***STATIONS NOT REPORTING VARIABLES SUCH AS SKY/WEATHER OR
PRESSURE ARE PROVIDED BY THE NEBRASKA DEPARTMENT OF
ROADS...RAWS...AND APRS NETWORKS...AND ARE NOT UNDER
NATIONAL WEATHER SERVICE QUALITY CONTROL***

...OBSERVATIONS IN AND NEAR THE EASTERN PANHANDLE OF NEBRASKA...

CITY           SKY/WX    TMP DP  RH WIND       PRES   REMARKS
PINE RIDGE     SUNNY     67  59  75 CALM      29.96R
CHADRON        SUNNY     73  58  59 E3        29.98R
SIDNEY         MOSUNNY   71  56  58 W8        30.04R
BIG SPRINGS      N/A     68  65  90 W3          N/A
$$

...OBSERVATIONS IN NORTH CENTRAL NEBRASKA...

CITY           SKY/WX    TMP DP  RH WIND       PRES   REMARKS
THEDFORD       SUNNY     71  61  71 W5        29.95R
AINSWORTH      SUNNY     74  61  63 SW9       29.89F
O`NEILL        SUNNY     74  63  66 SW6       29.86F
ORD            SUNNY     73  66  78 CALM      29.88R
BROKEN BOW     SUNNY     74  63  68 CALM      29.93R
SPRINGVIEW       N/A     70  65  83 CALM        N/A
CHAMBERS         N/A     82  63  52 SW3         N/A
EWING            N/A     71  67  87 SW3         N/A
$$

...OBSERVATIONS IN SOUTHWEST NEBRASKA AND FAR NORTHEAST COLORADO...

CITY           SKY/WX    TMP DP  RH WIND       PRES   REMARKS
WRAY           FAIR      72  64  77 SW3       30.01S
HOLYOKE        FAIR      73  66  78 CALM      30.01
IMPERIAL       SUNNY     73  63  70 SW6       29.98S
OGALLALA       SUNNY     67  62  85 SW3       29.98S
NORTH PLATTE   SUNNY     68  61  78 CALM      29.96R
MCCOOK         SUNNY     75  65  70 VRB3      29.96R
LEXINGTON      SUNNY     75  67  76 SW6       29.93S
PAXTON           N/A     65  62  91 CALM        N/A
BRADY            N/A     70  64  82 CALM        N/A
CALLAWAY         N/A     75  71  89 SE5         N/A
$$

...NORTH PLATTE AREA...

CITY           SKY/WX    TMP DP  RH WIND       PRES   REMARKS
AIRPORT        SUNNY     68  61  78 CALM      29.96R
DOWNTOWN         N/A     73  60  65 CALM        N/A
SANDRIDGE        N/A     70  59  68 CALM        N/A
HILLCREST        N/A     68  60  75 CALM        N/A
$$

...SOME WEATHER OBSERVATIONS FROM AROUND THE REGION...

CITY           SKY/WX    TMP DP  RH WIND       PRES   REMARKS
DENVER         MOSUNNY   71  53  52 CALM      30.10S
LARAMIE        SUNNY     59  42  53 CALM      30.25R
CHEYENNE       SUNNY     69  51  52 W7        30.15R
SCOTTSBLUFF    SUNNY     69  58  67 CALM      30.02R
RAPID CITY     SUNNY     69  49  48 N13       29.98R
PIERRE         SUNNY     69  57  65 N8        29.84R
WINNER         FAIR      76  59  55 W9        29.85R
SIOUX FALLS    MOSUNNY   73  64  73 VRB5      29.77S
OMAHA          MOSUNNY   78  71  79 S8        29.85S
GRAND ISLAND   SUNNY     79  67  66 SW12      29.91R
KANSAS CITY    MOSUNNY   79  70  74 SW12      29.93S
WICHITA        MOSUNNY   78  69  73 S8        29.97R
HAYS           SUNNY     77  64  65 SW10      29.95F
LIBERAL        SUNNY     73  61  64 E7        29.99R
GOODLAND       MOSUNNY   75  68  78 S5        30.02R
$$



USA.gov is the U.S. government's official web portal to all federal, state and local government web resources and services.